Location: New Frontier Mobile Home Park
(32.8448°N, 116.9675°W)
Time: 21:24:20
(UTC+00:00)

SL-27 R/B - Pass Details

Date: 14 July 2020
Orbit: 420 x 470 km, 74.7° (Epoch: 05 August)

Event Time Altitude Azimuth Distance (km) Brightness Sun altitude
Exits shadow 11:42:12 20° 258° (WSW) 1,107 3.8 -13.0°
Maximum altitude 11:43:25 24° 290° (WNW) 972 3.8 -12.8°
Drops below altitude 10° 11:46:20 10° 347° (NNW) 1,581 5.5 -12.3°
Sets 11:48:40 0° 2° (N) 2,446 6.7 -11.9°
